World > North America > United States > North Dakota

Cando, North Dakota Regional Weather

Lat: 48.49N, Lon: 99.2W
Wx Zone: NDZ006
Feedback

Cando, ND Regional Weather

Expires:201907210200;;379385
ASUS43 KBIS 210102
RWRND 

NORTH DAKOTA REGIONAL WEATHER ROUNDUP
NATIONAL WEATHER SERVICE BISMARCK ND
800 PM CDT SAT JUL 20 2019

NOTE: "FAIR" INDICATES FEW OR NO CLOUDS BELOW 12,000 FEET WITH NO
SIGNIFICANT WEATHER AND/OR OBSTRUCTIONS TO VISIBILITY.



NDZ004>008-012>016-024-026-027-054-210200-
NORTHEAST NORTH DAKOTA
  
CITY           SKY/WX    TMP DP  RH WIND       PRES   REMARKS
GRAND FORKS    MOSUNNY   76  52  43 N8        29.96R                  
GRND FRKS AFB  SUNNY     75  53  46 N8        29.97R                  
DEVILS LAKE    MOSUNNY   74  49  41 W12       30.02R                  
$$
 

SKY/WX - Weather  TMP - Temperature  DP - Dew Point  RH - Relative Humidity
WIND - Wind Direction/Speed PRES - Barometric Pressure VSB - Visibility
WCI - Wind Chill Index E13G22 Wind - East Wind 13 mph/Gusts of 22 mph